STARLINK-37052

operational
NORAD ID: 70116 Constellation: starlink
LEOCIRCULAR

关于 STARLINK-37052

正在加载描述...

实时位置

正在加载3D地球...

即将过境

高度历史

Altitude vs Time

uPlot chart will show altitude changes over time

两行轨道根数

1 70116C 26050N 26073.73243056 .00569660 00000+0 74681-3 0 739
2 70116 53.1639 257.6159 0011191 268.3166 224.6694 16.05472156 15
Epoch: Mar 14, 2026 • Age: 48 hours